User: anonymous   Login
Location: Unspecified
(0.0000°N, 0.0000°E)
Time: 07:28:56
(UTC+00:00)
Language:

GALILEO 7 (263) - Orbit

View from above orbital plane
View from above orbital plane
View from above satellite
View from above satellite

Ground track
Ground track

The orbit data is extracted from the following two-line orbital elements,

1 40544U 15017A   17082.35318914 +.00000016 +00000-0 +00000-0 0  9990
2 40544 055.5521 074.4161 0004389 267.0224 092.9466 01.70475393012358
Epoch (UTC): 23 March 2017 08:28:35
Eccentricity: 0.0004389
inclination: 55.5521°
perigee height: 23209 km
apogee height: 23235 km
right ascension of ascending node: 74.4161°
argument of perigee: 267.0224°
revolutions per day: 1.70475393
mean anomaly at epoch: 92.9466°
orbit number at epoch: 1235

The dashed part of the orbit path shows where the satellite is in the earth's shadow,  

DLR